Sébastien Pillon

Sébastien Pillon

Statistiques 2026

  • Courses courues : 4
  • Nb de victoires : -
  • Nb de places : 1
  • Écart gagnant : 21
  • Réussite à la gagne : -
  • Réussite à la place : 25%
Musique : 3a Da Da 0a (25) 8a 0a 5a Da 5a 6a 6a 5a 2a 3a Da 8a 0a 0a
DateRangCatégorieAlloc.Dist.HippodromeChevalRed. KmSpé.
17/08/14 9 Trot 20 000€ 2 600m Le Mont Saint Michel Urawa de Vauville 1'15"8 Attelé lire

Longtemps en queue de peloton, a su terminer fort honorablement.

11/08/14 6 Trot 32 000€ 2 550m Dieppe Urawa de Vauville 1'29"4 Attelé
05/08/14 0 Trot 13 000€ 2 700m Avranches Vedette du Parc Attelé
03/08/14 2 Mixte 17 000€ 2 950m Dinan Urawa de Vauville Attelé
28/07/14 0 Trot 13 000€ 3 375m Agon Coutainville Aida de Vauville Attelé
27/07/14 3 Mixte 18 000€ 2 850m Brehal Vaquinin 1'23"2 Attelé
26/07/14 D Trot 22 000€ 2 975m Le Mans United du Parc Attelé
25/07/14 7 Trot 24 000€ 2 850m Cabourg Vedette du Parc 1'18"4 Attelé lire

Après avoir figuré, a concédé du terrain dans la ligne opposée avant de revenir terminer fort honorablement.

20/07/14 D Trot 10 000€ 2 700m Avranches Ucabalu Negru Attelé
20/07/14 0 Trot 22 000€ 2 700m Graignes Verdi de Crouay Attelé
17/07/14 5 Trot 22 000€ 2 950m Saint Malo Vedette du Parc 1'19"0 Attelé
13/07/14 9 Trot 12 000€ 2 600m Genets Viril Kerzu Attelé
06/07/14 D Trot 13 000€ 2 950m Saint Malo Alpha d'hay Attelé
06/07/14 0 Trot 14 000€ 2 950m Saint Malo Vedette du Parc Attelé
04/07/14 4 Trot 13 000€ 2 875m Villedieu Les Poeles Viril Kerzu Attelé
29/06/14 7 Trot 14 000€ 2 700m Graignes Veline Bel 1'20"1 Attelé
22/06/14 0 Trot 17 000€ 2 675m Erbray Upia du Sound Attelé
15/06/14 8 Trot 15 000€ 2 475m Niort Upia du Sound 1'20"7 Attelé
15/06/14 4 Trot 13 000€ 2 475m Niort Verdi de Crouay 1'20"7 Attelé
14/06/14 3 Trot 14 000€ 2 700m Jullouville Les Pins Vedette du Parc Attelé
01/06/14 8 Trot 13 000€ 2 750m Elbeuf Urok Attelé
25/05/14 3 Trot 13 000€ 2 900m Argentan Unshara 1'18"1 Attelé
23/05/14 0 Trot 16 000€ 2 625m Moulins Reve de Saint Maur Attelé
18/05/14 3 Trot 20 000€ 2 625m Cherbourg Azan d'Azif 1'15"4 Attelé
17/05/14 D Mixte 14 000€ 2 825m Chateau Gontier Salinero Attelé
17/05/14 7 Mixte 13 000€ 2 825m Chateau Gontier Verdi de Crouay Attelé
11/05/14 3 Trot 18 000€ 2 800m Rambouillet Urok Attelé
01/05/14 0 Trot 14 000€ 2 600m Morlaix Vinci du Lilas Attelé
01/05/14 4 Trot 14 000€ 2 600m Morlaix Versa de Vauville Attelé
01/05/14 0 Trot 16 000€ 2 600m Morlaix Tenor d'Essa Attelé
27/04/14 0 Trot 11 000€ 2 825m Vire Ugo de la Vallee Attelé
24/04/14 0 Trot 22 000€ 2 475m Caen United du Parc Attelé
21/04/14 8 Trot 20 000€ 2 775m Ecommoy Spirit d'Or Attelé
20/04/14 9 Mixte 15 000€ 2 225m Loudeac Upia du Sound Attelé
16/04/14 2 Trot 21 000€ 2 825m Pontchateau United du Parc 1'15"0 Attelé lire

Très vite en tête, a été relayé aux tribunes, puis a superbement bien tenu sa partie jusqu'au bout, ne s'inclinant pour la victoire que pour finir.

14/04/14 3 Trot 15 000€ 2 700m Le Croise Laroche Urok 1'15"4 Attelé
06/04/14 8 Trot 14 000€ 2 875m Villedieu Les Poeles Viril Kerzu Attelé
30/03/14 8 Trot 16 000€ 2 625m Cherbourg Valley Kat 1'19"7 Attelé
29/03/14 5 Trot 22 000€ 2 450m Caen Upia du Sound 1'19"7 Attelé
23/03/14 2 Mixte 13 000€ 3 250m Saumur Valley Kat Attelé
02/03/14 D Mixte 12 000€ 2 825m Cholet Vedette du Parc Attelé
25/02/14 D Trot 19 000€ 2 875m Laval Vedette du Parc Attelé
23/02/14 0 Trot 18 000€ 2 725m Graignes Urawa de Vauville Attelé
14/02/14 9 Trot 21 000€ 2 700m Graignes Ukita du Mesnil 1'19"6 Attelé
10/02/14 4 Trot 12 000€ 2 575m Saint Brieuc Vedette du Parc 1'19"2 Attelé
09/02/14 8 Trot 35 000€ 2 650m Bordeaux Le Bouscat Sancho du Parc 1'16"2 Attelé
02/02/14 3 Trot 18 000€ 2 875m Mauquenchy Urbia 1'16"8 Attelé
26/01/14 7 Trot 16 000€ 2 875m Argentan Vedette du Parc 1'20"7 Attelé
09/01/14 8 Trot 35 000€ 3 025m Nantes Sancho du Parc 1'16"4 Attelé
05/01/14 D Trot 26 000€ 2 850m Cabourg Vedette du Parc Attelé